Flag for Kosovo Weather past 2 weeks in Uroševac, Kosovo

Now
41 °F

Cloudy.


Feels Like: 38 °F
Forecast: 35 / 44 °F
Wind: 5 mph from Northwest

Location: Skopje-Petrovec

Current Time: Oct 24, 2014 at 10:40:51 AM

Latest Report: Oct 24, 2014 at 10:00 AM


Visibility: N/A

Pressure: 29.92 "Hg

Humidity: 87%

Dew point: 37 °F

Location of UroševacLocation

Historic Weather in Uroševac — Graph

°F

Uroševac temperature yesterday

Maximum temperature yesterday: 48 °F (at 1:00 PM)
Minimum temperature yesterday: 37 °F (at 9:30 PM)
Average temperature yesterday: 43 °F

Past Weeks' High & Low Weather Summary

 TemperatureHumidityPressure
High77 °F (Oct 11, 4:00 PM)100% (Oct 10, 5:00 AM)30.39 "Hg (Oct 10, 5:00 AM)
Low34 °F (Oct 24, 3:00 AM)35% (Oct 19, 3:30 PM)29.50 "Hg (Oct 22, 5:30 PM)
Average57 °F83%30.04 "Hg
* Reported Oct 9 9:00 AM — Oct 24 9:30 AM, Uroševac, Weather by CustomWeather, © 2014

Note: Actual official high and low records may vary slightly from our data, if they occured in-between our weather recording intervals... More about our weather records

Advertising

Uroševac weather history for previous 24 hours

 ConditionsComfort  
Time TempWeatherWind HumidityBarometerVisibility
9:30 AM
Oct 24
39 °FMostly cloudy.No wind93%29.92 "HgN/A
9:00 AM39 °FDrizzle. Mostly cloudy.No wind87%29.92 "HgN/A
8:30 AM37 °FBroken clouds.3 mph93%29.92 "HgN/A
8:00 AM37 °FBroken clouds.6 mph93%29.89 "HgN/A
7:30 AM36 °FPartly cloudy.7 mph93%29.89 "HgN/A
7:00 AM36 °FPartly cloudy.6 mph93%29.89 "HgN/A
6:30 AM36 °FPassing clouds.3 mph93%29.86 "HgN/A
6:00 AM37 °FPassing clouds.2 mph87%29.86 "HgN/A
5:30 AM36 °FPassing clouds.3 mph93%29.86 "HgN/A
5:00 AM36 °FPassing clouds.6 mph93%29.86 "HgN/A
4:30 AM37 °FPassing clouds.6 mph87%29.86 "HgN/A
4:00 AM36 °FPassing clouds.3 mph93%29.86 "HgN/A
3:30 AM36 °FPassing clouds.5 mph93%29.83 "HgN/A
3:00 AM34 °FPassing clouds.1 mph93%29.86 "HgN/A
2:30 AM36 °FPassing clouds.1 mph93%29.86 "HgN/A
2:00 AM36 °FPassing clouds.5 mph93%29.86 "HgN/A
1:30 AM37 °FPassing clouds.1 mph87%29.86 "HgN/A
1:00 AM36 °FPassing clouds.No wind93%29.86 "HgN/A
12:30 AM39 °FPassing clouds.2 mph81%29.83 "HgN/A
12:00 AM39 °FPassing clouds.2 mph87%29.83 "HgN/A
11:30 PM
Oct 23
37 °FPassing clouds.2 mph87%29.83 "HgN/A
11:00 PM37 °FPassing clouds.3 mph87%29.80 "HgN/A
10:00 PM39 °FPassing clouds.2 mph87%29.80 "HgN/A
9:30 PM37 °FPassing clouds.3 mph93%29.80 "HgN/A
9:00 PM41 °FPassing clouds.2 mph81%29.77 "HgN/A
8:30 PM41 °FPassing clouds.5 mph87%29.77 "HgN/A
8:00 PM41 °FPassing clouds.8 mph87%29.74 "HgN/A
7:30 PM43 °FPassing clouds.9 mph81%29.74 "HgN/A
7:00 PM45 °FPassing clouds.8 mph76%29.74 "HgN/A
6:30 PM45 °FPartly sunny.8 mph81%29.71 "HgN/A
6:00 PM45 °FPartly sunny.7 mph81%29.71 "HgN/A
5:30 PM48 °FPartly sunny.7 mph71%29.71 "HgN/A
5:00 PM48 °FPartly sunny.7 mph71%29.71 "HgN/A
4:30 PM48 °FPartly sunny.8 mph71%29.65 "HgN/A
4:00 PM48 °FScattered clouds.6 mph71%29.65 "HgN/A
3:30 PM48 °FScattered clouds.8 mph76%29.65 "HgN/A
3:00 PM48 °FMore clouds than sun.9 mph76%29.65 "HgN/A
2:30 PM48 °FMore clouds than sun.6 mph76%29.68 "HgN/A
2:00 PM46 °FMore clouds than sun.3 mph76%29.68 "HgN/A
1:30 PM46 °FMore clouds than sun.3 mph76%29.68 "HgN/A
1:00 PM48 °FPartly sunny.2 mph71%29.65 "HgN/A
12:30 PM46 °FScattered clouds.8 mph82%29.68 "HgN/A
12:00 PM45 °FBroken clouds.7 mph87%29.68 "HgN/A
11:30 AM41 °FMore clouds than sun.7 mph93%29.68 "HgN/A
11:00 AM41 °FDrizzle. Mostly cloudy.2 mph93%29.68 "HgN/A
10:30 AM41 °FLight rain. Mostly cloudy.2 mph93%29.68 "HgN/A
10:00 AM41 °FLight rain. Mostly cloudy.2 mph93%29.68 "HgN/A
Weather by CustomWeather, © 2014

See weather overviewHow to use our weather pages